Regional Weather Roundup
Issued by NWS New Orleans/Baton Rouge, LA

Home | Current Version | Previous Version | Graphics & Text | Print | Product List | Glossary On
Versions: 1 2 3 4 5 6 7 8 9 10 11 12 13 14 15 16 17 18 19 20 21 22 23 24 25 26 27 28 29 30 31 32 33 34 35 36 37 38 39 40 41 42 43 44 45 46 47 48 49 50
753
ASUS44 KLIX 282111
RWRLIX
NEW ORLEANS REGIONAL WEATHER ROUNDUP
NATIONAL WEATHER SERVICE NEW ORLEANS LA
400 PM CDT SAT MAR 28 2015

NOTE: "FAIR" INDICATES FEW OR NO CLOUDS BELOW 12,000 FEET WITH NO
      SIGNIFICANT WEATHER AND/OR OBSTRUCTIONS TO VISIBILITY.
      SKY/WX - SKY CONDITION AND SIGNIFICANT WEATHER.
      TMP - AIR TEMPERATURE.     DP    - DEWPOINT TEMPERATURE.
      RH  - RELATIVE HUMIDITY.   PRES  - PRESSURE.
      HI  - HEAT INDEX.          WCI   - WIND CHILL INDEX.

*  THESE STATIONS ARE NOT NWS OR FAA STATIONS AND ARE NOT UNDER
   NWS QUALITY CONTROL.

LAZ038-040-048-061>063-065>067-069-282200-
SOUTHEAST LOUISIANA

CITY           SKY/WX    TMP DP  RH WIND       PRES   REMARKS
N.O. AUDUBON     N/A    N/A N/A N/A MISG        N/A
N.O. INTL ARPT MOSUNNY   69  44  40 SE6       30.16F
N.O. LAKEFRONT SUNNY     67  43  41 E12       30.18F
SLIDELL        SUNNY     67  43  41 S7        30.17F
BATON ROUGE    SUNNY     73  43  33 MISG      30.13F
BOOTHVILLE     SUNNY     63  50  62 NE8       30.20F
BELLE CHASSE   MOSUNNY   66  44  45 VRB7      30.17F
BOGALUSA*        N/A     69  37  30 CALM      30.18F
GALLIANO*      CLEAR     67  48  49 MISG      30.19F
NEW ROADS*       N/A     71  46  41 SE9       30.13F
GONZALES*        N/A     72  44  36 SW5       30.14F
HAMMOND*       SUNNY     70  37  30 S6        30.18F
HOUMA*         SUNNY     70  48  46 S7        30.17F
PORT FOURCHON* CLEAR     63  48  59 VRB7G13   30.22S

$$

MSZ070-080>082-282200-
SOUTHERN MISSISSIPPI

CITY           SKY/WX    TMP DP  RH WIND       PRES   REMARKS
MCCOMB         SUNNY     68  41  37 SW8       30.15F
GULFPORT       SUNNY     61  40  45 VRB5      30.19F
BILOXI         SUNNY     62  40  44 S6        30.19F
PASCAGOULA     SUNNY     61  42  49 S8        30.20F
STENNIS ARPT*  SUNNY     64  37  36 S7        30.19F

$$

COASTAL OBSERVATIONS
LAKE AND NEARSHORE STATIONS

STATION/POSITION TIME  TEMP    WIND        PRES    WAVE
                       AIR SEA DIR/SP/G            HT/PER
                 (UTC) (F)     (DEG/KT/KT) (MB)    (FT/S)
PASCAGOULA       2000   59     180/  7/ 10 1022.6
WAVELAND YACHT   2000   57 65  150/  7/ 10 1022.8
GRAND ISLE       2000   63 66  110/  7/ 12 1022.1
SOUTHWEST PASS   2000   68 53   90/ 12/ 14 1022.5
NEW CANAL        2000   66      80/  4/  8 1022.5
SHELL BEACH      2000   61 67   60/ 12/ 13 1022.6

OFFSHORE STATIONS

STATION/POSITION TIME  TEMP    WIND        PRES    WAVE
                       AIR SEA DIR/SP/G            HT/PER
                 (UTC) (F)     (DEG/KT/KT) (MB)    (FT/S)
64 S DAUPHIN ISL 2050   58 73   50/  6/  8 1022.9    2/ 5

$$




USA.gov is the U.S. government's official web portal to all federal, state and local government web resources and services.